Skip Page Navigation
NASA JPL Caltech
NASA Logo - Jet Propulsion Laboratory + View the NASA Portal
+ Near-Earth Object (NEO) Program
Search JPL
JPL Home Earth Solar System Stars & Galaxies Technology
JPL Solar System Dynamics
BODIES ORBITS EPHEMERIDES TOOLS PHYSICAL DATA DISCOVERY FAQ SITE MAP
JPL Small-Body Database Browser
Search: [ help ]  
277475 (2005 WK4)
Classification: Apollo [NEO, PHA]          SPK-ID: 2277475
Ephemeris | Orbit Diagram | Orbital Elements | Physical Parameters | Discovery Circumstances | Close-Approach Data ]

[ hide orbit diagram ]
Orbit Diagram
Note: Make sure you have Java enabled on your browser to see the applet. This applet is provided as a 3D orbit visualization tool. The applet was implemented using 2-body methods, and hence should not be used for determining accurate long-term trajectories (over several years or decades) or planetary encounter circumstances. For accurate long-term ephemerides, please instead use our Horizons system.
Orbit Viewer

Additional Notes: the orbits shown in the applet are color coded. The planets are white lines, and the asteroid/comet is a blue line. The bright white line indicates the portion of the orbit that is above the ecliptic plane, and the darker portion is below the ecliptic plane. Likewise for the asteroid/comet orbit, the light blue indicates the portion above the ecliptic plane, and the dark blue the portion below the ecliptic plane.

Orbit Viewer applet originally written and kindly provided by Osamu Ajiki (AstroArts), and further modified by Ron Baalke (JPL).


Orbital Elements at Epoch 2456400.5 (2013-Apr-18.0) TDB
Reference: JPL 56 (heliocentric ecliptic J2000)
 Element Value Uncertainty (1-sigma)   Units 
e .2375647170270645 6.497e-07  
a 1.011705284471131 3.874e-08 AU
q .7713598048509609 6.2793e-07 AU
i 9.831961333193664 1.7642e-05 deg
node 138.2079343663312 3.4706e-05 deg
peri 74.26646246225886 3.6219e-05 deg
M 328.3075909822845 8.7386e-05 deg
tp 2456433.221424799227
(2013-May-20.72142480)
9.1978e-05 JED
period 371.6887826714969
1.02
2.1349e-05
5.845e-08
d
yr
n .9685522318228591 5.5631e-08 deg/d
Q 1.252050764091301 4.7943e-08 AU
  Orbit Determination Parameters
   # obs. used (total)      180  
   # delay obs. used      0  
   # Doppler obs. used      1  
   data-arc span      2513 days (6.88 yr)  
   first obs. used      2005-11-27  
   last obs. used      2012-10-14  
   planetary ephem.      DE405  
   SB-pert. ephem.      SB405-CPV-2  
   condition code      1  
   fit RMS      .51348  
   data source      ORB  
   producer      Otto Matic  
   solution date      2013-Apr-29 15:41:17  

Additional Information
 Earth MOID = .00393078 AU 
 T_jup = 5.987 
[ show covariance matrix ]

Ephemeris | Orbit Diagram | Orbital Elements | Physical Parameters | Discovery Circumstances | Close-Approach Data ]

Physical Parameter Table
Parameter Symbol Value Units Sigma Reference Notes
absolute magnitude H 20.071 mag .43464 56 autocmod 2.5c

277475 (2005 WK4)          Discovered 2005-Nov-27 by Siding Spring Survey at Siding Spring (E12)
Reference: 20110517/Numbers.arcLast Updated: 2011-05-20

[ show close-approach data ]
Ephemeris | Orbit Diagram | Orbital Elements | Physical Parameters | Discovery Circumstances | Close-Approach Data ]
ABOUT SSD CREDITS/AWARDS PRIVACY/COPYRIGHT GLOSSARY LINKS
FirstGov 2013-May-25 11:35 UT
(server date/time)  
NASA Home Page
Site Manager:   Donald K. Yeomans
Webmaster  Alan B. Chamberlin